Voltar ao catálogo

FENGYUN 1C DEB

AtivoSSO
NORAD 30750·DEBRIS·🇨🇳 China

Lançado May 10, 1999 de Taiyuan Satellite Launch Center

Loading…

Próximas Passagens (próximas 24 horas)

TLE

AtualizadoSource: Space-Track

Época: Sep 13, 2026, 17:48 UTC

1 30750U 99025ATL 26256.74170498  .00002259  00000-0  87505-3 0  9997
2 30750  98.9085 342.6635 0038001  19.0764 132.3046 14.30656696  7095

Acompanhe FENGYUN 1C DEB em tempo real com AllMySat

Download on the App Store